Time,TemperatureF,DewpointF,PressureIn,WindDirection,WindDirectionDegrees,WindSpeedMPH,WindSpeedGustMPH,Humidity,HourlyPrecipIn,Conditions,Clouds,dailyrainin,SolarRadiationWatts/m^2,SoftwareType,DateUTC
2013-11-27 00:03:00,50.9,29.2,30.11,NNE,22,4.0,-999.0,43,0.00,,,0.00,0.0,WeatherSnoop3.0,2013-11-27 08:03:00,
2013-11-27 00:08:00,50.9,28.6,30.12,North,360,1.0,-999.0,42,0.00,,,0.00,0.0,WeatherSnoop3.0,2013-11-27 08:08:00,
2013-11-27 00:14:00,50.9,29.2,30.12,North,5,0.0,-999.0,43,0.00,,,0.00,0.0,WeatherSnoop3.0,2013-11-27 08:14:00,
2013-11-27 00:19:00,50.9,29.2,30.11,NNW,346,2.0,-999.0,43,0.00,,,0.00,0.0,WeatherSnoop3.0,2013-11-27 08:19:00,
2013-11-27 00:24:00,50.9,29.2,30.11,NNW,338,1.0,-999.0,43,0.00,,,0.00,0.0,WeatherSnoop3.0,2013-11-27 08:24:00,
2013-11-27 00:30:00,50.9,29.2,30.11,NE,34,2.0,-999.0,43,0.00,,,0.00,0.0,WeatherSnoop3.0,2013-11-27 08:30:00,
2013-11-27 00:35:00,50.9,29.2,30.11,NNW,345,2.0,-999.0,43,0.00,,,0.00,0.0,WeatherSnoop3.0,2013-11-27 08:35:00,
2013-11-27 00:40:00,50.8,29.1,30.11,North,355,1.0,-999.0,43,0.00,,,0.00,0.0,WeatherSnoop3.0,2013-11-27 08:40:00,
2013-11-27 00:45:00,50.8,29.1,30.11,North,350,6.0,-999.0,43,0.00,,,0.00,0.0,WeatherSnoop3.0,2013-11-27 08:45:00,
2013-11-27 00:51:00,50.8,29.1,30.11,NNW,345,4.0,-999.0,43,0.00,,,0.00,0.0,WeatherSnoop3.0,2013-11-27 08:51:00,
2013-11-27 00:56:00,50.8,29.1,30.10,NNW,344,1.0,-999.0,43,0.00,,,0.00,0.0,WeatherSnoop3.0,2013-11-27 08:56:00,
2013-11-27 01:02:00,50.8,29.1,30.10,North,360,2.0,-999.0,43,0.00,,,0.00,0.0,WeatherSnoop3.0,2013-11-27 09:02:00,
2013-11-27 01:07:00,50.7,29.0,30.10,North,360,4.0,-999.0,43,0.00,,,0.00,0.0,WeatherSnoop3.0,2013-11-27 09:07:00,
2013-11-27 01:12:00,50.7,29.0,30.10,NNW,344,7.0,-999.0,43,0.00,,,0.00,0.0,WeatherSnoop3.0,2013-11-27 09:12:00,
2013-11-27 01:17:00,50.7,29.0,30.10,NW,304,0.0,-999.0,43,0.00,,,0.00,0.0,WeatherSnoop3.0,2013-11-27 09:17:00,
2013-11-27 01:22:00,50.7,29.0,30.10,North,355,0.0,-999.0,43,0.00,,,0.00,0.0,WeatherSnoop3.0,2013-11-27 09:22:00,
2013-11-27 01:28:00,50.6,28.9,30.10,NE,42,3.0,-999.0,43,0.00,,,0.00,0.0,WeatherSnoop3.0,2013-11-27 09:28:00,
2013-11-27 01:33:00,50.5,28.8,30.10,NNE,25,1.0,-999.0,43,0.00,,,0.00,0.0,WeatherSnoop3.0,2013-11-27 09:33:00,
2013-11-27 01:39:00,50.6,28.9,30.09,NNE,15,0.0,-999.0,43,0.00,,,0.00,0.0,WeatherSnoop3.0,2013-11-27 09:39:00,
2013-11-27 01:44:00,50.6,28.9,30.09,NE,37,3.0,-999.0,43,0.00,,,0.00,0.0,WeatherSnoop3.0,2013-11-27 09:44:00,
2013-11-27 01:50:00,50.7,28.5,30.09,NNE,33,1.0,-999.0,42,0.00,,,0.00,0.0,WeatherSnoop3.0,2013-11-27 09:50:00,
2013-11-27 01:55:00,50.8,28.5,30.09,NNW,335,0.0,-999.0,42,0.00,,,0.00,0.0,WeatherSnoop3.0,2013-11-27 09:55:00,
2013-11-27 02:00:00,50.9,28.6,30.09,NNE,13,0.0,-999.0,42,0.00,,,0.00,0.0,WeatherSnoop3.0,2013-11-27 10:00:00,
2013-11-27 02:06:00,50.9,28.6,30.08,North,360,6.0,-999.0,42,0.00,,,0.00,0.0,WeatherSnoop3.0,2013-11-27 10:06:00,
2013-11-27 02:11:00,50.9,28.6,30.08,North,350,0.0,-999.0,42,0.00,,,0.00,0.0,WeatherSnoop3.0,2013-11-27 10:11:00,
2013-11-27 02:16:00,50.8,28.5,30.08,North,5,0.0,-999.0,42,0.00,,,0.00,0.0,WeatherSnoop3.0,2013-11-27 10:16:00,
2013-11-27 02:22:00,50.8,28.5,30.08,ENE,57,0.0,-999.0,42,0.00,,,0.00,0.0,WeatherSnoop3.0,2013-11-27 10:22:00,
2013-11-27 02:27:00,50.8,28.5,30.08,NE,53,0.0,-999.0,42,0.00,,,0.00,0.0,WeatherSnoop3.0,2013-11-27 10:27:00,
2013-11-27 02:32:00,50.7,28.5,30.08,NNE,24,2.0,-999.0,42,0.00,,,0.00,0.0,WeatherSnoop3.0,2013-11-27 10:32:00,
2013-11-27 02:37:00,50.6,28.4,30.08,NNE,24,2.0,-999.0,42,0.00,,,0.00,0.0,WeatherSnoop3.0,2013-11-27 10:37:00,
2013-11-27 02:42:00,50.5,28.8,30.08,North,5,0.0,-999.0,43,0.00,,,0.00,0.0,WeatherSnoop3.0,2013-11-27 10:42:00,
2013-11-27 02:48:00,50.5,28.8,30.08,North,355,1.0,-999.0,43,0.00,,,0.00,0.0,WeatherSnoop3.0,2013-11-27 10:48:00,
2013-11-27 02:53:00,50.3,28.7,30.08,NNW,340,0.0,-999.0,43,0.00,,,0.00,0.0,WeatherSnoop3.0,2013-11-27 10:53:00,
2013-11-27 03:00:00,50.3,28.7,30.08,NE,46,1.0,-999.0,43,0.00,,,0.00,0.0,WeatherSnoop3.0,2013-11-27 11:00:00,
2013-11-27 03:05:00,50.1,28.5,30.08,NNW,342,0.0,-999.0,43,0.00,,,0.00,0.0,WeatherSnoop3.0,2013-11-27 11:05:00,
2013-11-27 03:10:00,50.0,28.4,30.07,NNE,25,0.0,-999.0,43,0.00,,,0.00,0.0,WeatherSnoop3.0,2013-11-27 11:10:00,
2013-11-27 03:15:00,49.8,28.8,30.07,NE,44,5.0,-999.0,44,0.00,,,0.00,0.0,WeatherSnoop3.0,2013-11-27 11:15:00,
2013-11-27 03:21:00,49.7,28.7,30.07,NE,39,0.0,-999.0,44,0.00,,,0.00,0.0,WeatherSnoop3.0,2013-11-27 11:21:00,
2013-11-27 03:26:00,49.7,28.1,30.07,NE,42,0.0,-999.0,43,0.00,,,0.00,0.0,WeatherSnoop3.0,2013-11-27 11:26:00,
2013-11-27 03:31:00,49.7,28.7,30.07,North,5,2.0,-999.0,44,0.00,,,0.00,0.0,WeatherSnoop3.0,2013-11-27 11:31:00,
2013-11-27 03:37:00,49.7,28.1,30.07,North,355,2.0,-999.0,43,0.00,,,0.00,0.0,WeatherSnoop3.0,2013-11-27 11:37:00,
2013-11-27 03:42:00,49.7,28.7,30.07,NNW,337,5.0,-999.0,44,0.00,,,0.00,0.0,WeatherSnoop3.0,2013-11-27 11:42:00,
2013-11-27 03:47:00,49.7,28.1,30.07,NNE,13,0.0,-999.0,43,0.00,,,0.00,0.0,WeatherSnoop3.0,2013-11-27 11:47:00,
2013-11-27 03:52:00,49.7,28.1,30.06,NE,38,2.0,-999.0,43,0.00,,,0.00,0.0,WeatherSnoop3.0,2013-11-27 11:52:00,
2013-11-27 03:58:00,49.8,28.2,30.06,NE,44,3.0,-999.0,43,0.00,,,0.00,0.0,WeatherSnoop3.0,2013-11-27 11:58:00,
2013-11-27 04:03:00,49.8,28.2,30.06,NNE,14,3.0,-999.0,43,0.00,,,0.00,0.0,WeatherSnoop3.0,2013-11-27 12:03:00,
2013-11-27 04:08:00,49.8,28.8,30.06,North,350,0.0,-999.0,44,0.00,,,0.00,0.0,WeatherSnoop3.0,2013-11-27 12:08:00,
2013-11-27 04:14:00,49.7,28.7,30.06,North,350,0.0,-999.0,44,0.00,,,0.00,0.0,WeatherSnoop3.0,2013-11-27 12:14:00,
2013-11-27 04:19:00,49.6,28.6,30.06,NNW,346,0.0,-999.0,44,0.00,,,0.00,0.0,WeatherSnoop3.0,2013-11-27 12:19:00,
2013-11-27 04:25:00,49.4,28.4,30.06,NNW,339,0.0,-999.0,44,0.00,,,0.00,0.0,WeatherSnoop3.0,2013-11-27 12:25:00,
2013-11-27 04:30:00,49.3,28.3,30.06,NNW,344,0.0,-999.0,44,0.00,,,0.00,0.0,WeatherSnoop3.0,2013-11-27 12:30:00,
2013-11-27 04:35:00,49.2,28.2,30.06,North,360,0.0,-999.0,44,0.00,,,0.00,0.0,WeatherSnoop3.0,2013-11-27 12:35:00,
2013-11-27 04:40:00,49.0,28.6,30.06,NNW,348,0.0,-999.0,45,0.00,,,0.00,0.0,WeatherSnoop3.0,2013-11-27 12:40:00,
2013-11-27 04:46:00,48.9,28.5,30.05,NNW,335,0.0,-999.0,45,0.00,,,0.00,0.0,WeatherSnoop3.0,2013-11-27 12:46:00,
2013-11-27 04:51:00,48.8,28.4,30.06,NNW,338,1.0,-999.0,45,0.00,,,0.00,0.0,WeatherSnoop3.0,2013-11-27 12:51:00,
2013-11-27 04:56:00,48.7,28.3,30.06,NNW,336,6.0,-999.0,45,0.00,,,0.00,0.0,WeatherSnoop3.0,2013-11-27 12:56:00,
2013-11-27 05:01:00,48.7,28.3,30.06,North,355,0.0,-999.0,45,0.00,,,0.00,0.0,WeatherSnoop3.0,2013-11-27 13:01:00,
2013-11-27 05:07:00,48.6,28.2,30.05,North,355,0.0,-999.0,45,0.00,,,0.00,0.0,WeatherSnoop3.0,2013-11-27 13:07:00,
2013-11-27 05:12:00,48.5,28.1,30.05,NNW,345,0.0,-999.0,45,0.00,,,0.00,0.0,WeatherSnoop3.0,2013-11-27 13:12:00,
2013-11-27 05:17:00,48.3,28.5,30.05,NNW,329,0.0,-999.0,46,0.00,,,0.00,0.0,WeatherSnoop3.0,2013-11-27 13:17:00,
2013-11-27 05:22:00,48.2,28.4,30.06,NE,44,0.0,-999.0,46,0.00,,,0.00,0.0,WeatherSnoop3.0,2013-11-27 13:22:00,
2013-11-27 05:27:00,48.2,28.4,30.06,North,355,0.0,-999.0,46,0.00,,,0.00,0.0,WeatherSnoop3.0,2013-11-27 13:27:00,
2013-11-27 05:33:00,48.2,28.4,30.06,NNE,23,2.0,-999.0,46,0.00,,,0.00,0.0,WeatherSnoop3.0,2013-11-27 13:33:00,
2013-11-27 05:38:00,48.3,28.5,30.05,NNW,337,5.0,-999.0,46,0.00,,,0.00,0.0,WeatherSnoop3.0,2013-11-27 13:38:00,
2013-11-27 05:43:00,48.4,28.0,30.05,NNW,339,1.0,-999.0,45,0.00,,,0.00,0.0,WeatherSnoop3.0,2013-11-27 13:43:00,
2013-11-27 05:49:00,48.4,28.6,30.06,NNW,344,0.0,-999.0,46,0.00,,,0.00,0.0,WeatherSnoop3.0,2013-11-27 13:49:00,
2013-11-27 05:54:00,48.3,28.5,30.06,NNE,15,2.0,-999.0,46,0.00,,,0.00,0.0,WeatherSnoop3.0,2013-11-27 13:54:00,
2013-11-27 05:59:00,48.2,28.4,30.06,NNW,341,4.0,-999.0,46,0.00,,,0.00,0.0,WeatherSnoop3.0,2013-11-27 13:59:00,
2013-11-27 06:04:00,48.2,28.4,30.06,NNW,348,0.0,-999.0,46,0.00,,,0.00,0.0,WeatherSnoop3.0,2013-11-27 14:04:00,
2013-11-27 06:09:00,48.3,28.5,30.05,NW,321,4.0,-999.0,46,0.00,,,0.00,0.0,WeatherSnoop3.0,2013-11-27 14:09:00,
2013-11-27 06:15:00,48.3,28.5,30.06,NNE,15,0.0,-999.0,46,0.00,,,0.00,0.0,WeatherSnoop3.0,2013-11-27 14:15:00,
2013-11-27 06:20:00,48.3,28.5,30.05,North,355,0.0,-999.0,46,0.00,,,0.00,0.0,WeatherSnoop3.0,2013-11-27 14:20:00,
2013-11-27 06:25:00,48.2,28.4,30.05,North,5,2.0,-999.0,46,0.00,,,0.00,0.0,WeatherSnoop3.0,2013-11-27 14:25:00,
2013-11-27 06:31:00,48.2,28.4,30.05,North,355,1.0,-999.0,46,0.00,,,0.00,0.0,WeatherSnoop3.0,2013-11-27 14:31:00,
2013-11-27 06:37:00,48.2,28.4,30.04,WNW,283,2.0,-999.0,46,0.00,,,0.00,0.0,WeatherSnoop3.0,2013-11-27 14:37:00,
2013-11-27 06:42:00,48.1,28.3,30.04,North,5,0.0,-999.0,46,0.00,,,0.00,0.0,WeatherSnoop3.0,2013-11-27 14:42:00,
2013-11-27 06:47:00,48.1,28.3,30.04,NNW,331,0.0,-999.0,46,0.00,,,0.00,9.0,WeatherSnoop3.0,2013-11-27 14:47:00,
2013-11-27 06:53:00,48.1,28.3,30.04,NNE,32,0.0,-999.0,46,0.00,,,0.00,14.0,WeatherSnoop3.0,2013-11-27 14:53:00,
2013-11-27 06:59:00,48.0,28.2,30.04,NNE,29,1.0,-999.0,46,0.00,,,0.00,19.0,WeatherSnoop3.0,2013-11-27 14:59:00,
2013-11-27 07:04:00,48.0,28.2,30.04,North,11,2.0,-999.0,46,0.00,,,0.00,21.0,WeatherSnoop3.0,2013-11-27 15:04:00,
2013-11-27 07:09:00,48.0,28.2,30.04,North,349,7.0,-999.0,46,0.00,,,0.00,26.0,WeatherSnoop3.0,2013-11-27 15:09:00,
2013-11-27 07:14:00,48.1,28.3,30.04,NW,309,5.0,-999.0,46,0.00,,,0.00,32.0,WeatherSnoop3.0,2013-11-27 15:14:00,
2013-11-27 07:20:00,48.2,28.4,30.04,North,355,5.0,-999.0,46,0.00,,,0.00,40.0,WeatherSnoop3.0,2013-11-27 15:20:00,
2013-11-27 07:25:00,48.3,29.0,30.05,North,360,0.0,-999.0,47,0.00,,,0.00,47.0,WeatherSnoop3.0,2013-11-27 15:25:00,
2013-11-27 07:30:00,48.3,29.0,30.04,NE,51,6.0,-999.0,47,0.00,,,0.00,49.0,WeatherSnoop3.0,2013-11-27 15:30:00,
2013-11-27 07:36:00,48.4,29.1,30.04,NNE,30,1.0,-999.0,47,0.00,,,0.00,49.0,WeatherSnoop3.0,2013-11-27 15:36:00,
2013-11-27 07:41:00,48.5,29.2,30.04,NE,41,3.0,-999.0,47,0.00,,,0.00,49.0,WeatherSnoop3.0,2013-11-27 15:41:00,
2013-11-27 07:46:00,48.6,29.3,30.04,NNE,19,5.0,-999.0,47,0.00,,,0.00,53.0,WeatherSnoop3.0,2013-11-27 15:46:00,
2013-11-27 07:51:00,48.6,29.3,30.05,NE,34,0.0,-999.0,47,0.00,,,0.00,58.0,WeatherSnoop3.0,2013-11-27 15:51:00,
2013-11-27 07:56:00,48.7,29.4,30.04,NE,44,0.0,-999.0,47,0.00,,,0.00,49.0,WeatherSnoop3.0,2013-11-27 15:56:00,
2013-11-27 08:01:00,48.7,28.9,30.05,NNE,33,4.0,-999.0,46,0.00,,,0.00,39.0,WeatherSnoop3.0,2013-11-27 16:01:00,
2013-11-27 08:07:00,48.8,28.9,30.05,NNW,344,4.0,-999.0,46,0.00,,,0.00,44.0,WeatherSnoop3.0,2013-11-27 16:07:00,
2013-11-27 08:13:00,48.9,29.6,30.05,North,355,0.0,-999.0,47,0.00,,,0.00,54.0,WeatherSnoop3.0,2013-11-27 16:13:00,
2013-11-27 08:18:00,49.0,29.1,30.05,North,355,8.0,-999.0,46,0.00,,,0.00,104.0,WeatherSnoop3.0,2013-11-27 16:18:00,
2013-11-27 08:23:00,49.3,29.4,30.05,North,355,4.0,-999.0,46,0.00,,,0.00,248.0,WeatherSnoop3.0,2013-11-27 16:23:00,
2013-11-27 08:28:00,50.0,29.5,30.05,NE,34,0.0,-999.0,45,0.00,,,0.00,229.0,WeatherSnoop3.0,2013-11-27 16:28:00,
2013-11-27 08:33:00,50.8,29.7,30.05,NE,36,0.0,-999.0,44,0.00,,,0.00,174.0,WeatherSnoop3.0,2013-11-27 16:33:00,
2013-11-27 08:39:00,51.0,29.9,30.05,North,355,4.0,-999.0,44,0.00,,,0.00,107.0,WeatherSnoop3.0,2013-11-27 16:39:00,
2013-11-27 08:45:00,51.0,29.9,30.05,NE,55,5.0,-999.0,44,0.00,,,0.00,278.0,WeatherSnoop3.0,2013-11-27 16:45:00,
2013-11-27 08:51:00,51.3,30.1,30.05,NE,42,1.0,-999.0,44,0.00,,,0.00,209.0,WeatherSnoop3.0,2013-11-27 16:51:00,
2013-11-27 08:56:00,51.5,30.3,30.05,NNW,327,0.0,-999.0,44,0.00,,,0.00,165.0,WeatherSnoop3.0,2013-11-27 16:56:00,
2013-11-27 09:01:00,51.5,30.3,30.04,NNE,25,3.0,-999.0,44,0.00,,,0.00,77.0,WeatherSnoop3.0,2013-11-27 17:01:00,
2013-11-27 09:06:00,51.4,30.2,30.04,North,350,5.0,-999.0,44,0.00,,,0.00,79.0,WeatherSnoop3.0,2013-11-27 17:06:00,
2013-11-27 09:11:00,51.3,30.1,30.04,North,360,2.0,-999.0,44,0.00,,,0.00,220.0,WeatherSnoop3.0,2013-11-27 17:11:00,
2013-11-27 09:17:00,51.5,30.3,30.04,North,355,2.0,-999.0,44,0.00,,,0.00,353.0,WeatherSnoop3.0,2013-11-27 17:17:00,
2013-11-27 09:22:00,52.0,30.2,30.03,NNE,32,0.0,-999.0,43,0.00,,,0.00,128.0,WeatherSnoop3.0,2013-11-27 17:22:00,
2013-11-27 09:27:00,52.7,30.8,30.03,NNW,339,0.0,-999.0,43,0.00,,,0.00,86.0,WeatherSnoop3.0,2013-11-27 17:27:00,
2013-11-27 09:33:00,53.1,31.2,30.03,North,5,0.0,-999.0,43,0.00,,,0.00,113.0,WeatherSnoop3.0,2013-11-27 17:33:00,
2013-11-27 09:39:00,53.6,31.1,30.03,North,360,1.0,-999.0,42,0.00,,,0.00,91.0,WeatherSnoop3.0,2013-11-27 17:39:00,
2013-11-27 09:44:00,53.9,30.7,30.03,North,350,0.0,-999.0,41,0.00,,,0.00,95.0,WeatherSnoop3.0,2013-11-27 17:44:00,
2013-11-27 09:49:00,54.2,31.6,30.02,NNW,344,0.0,-999.0,42,0.00,,,0.00,149.0,WeatherSnoop3.0,2013-11-27 17:49:00,
2013-11-27 09:54:00,54.5,30.7,30.03,NNE,15,0.0,-999.0,40,0.00,,,0.00,149.0,WeatherSnoop3.0,2013-11-27 17:54:00,
2013-11-27 10:01:00,54.7,30.9,30.02,NNW,345,0.0,-999.0,40,0.00,,,0.00,156.0,WeatherSnoop3.0,2013-11-27 18:01:00,
2013-11-27 10:06:00,55.1,31.2,30.02,NNE,26,0.0,-999.0,40,0.00,,,0.00,287.0,WeatherSnoop3.0,2013-11-27 18:06:00,
2013-11-27 10:12:00,55.8,31.2,30.01,NW,318,5.0,-999.0,39,0.00,,,0.00,209.0,WeatherSnoop3.0,2013-11-27 18:12:00,
2013-11-27 10:18:00,56.6,31.9,30.01,North,360,0.0,-999.0,39,0.00,,,0.00,241.0,WeatherSnoop3.0,2013-11-27 18:18:00,
2013-11-27 10:23:00,57.2,31.8,30.00,North,349,0.0,-999.0,38,0.00,,,0.00,174.0,WeatherSnoop3.0,2013-11-27 18:23:00,
2013-11-27 10:28:00,57.4,32.0,30.00,NE,41,0.0,-999.0,38,0.00,,,0.00,134.0,WeatherSnoop3.0,2013-11-27 18:28:00,
2013-11-27 10:33:00,57.5,31.4,29.99,NE,34,4.0,-999.0,37,0.00,,,0.00,417.0,WeatherSnoop3.0,2013-11-27 18:33:00,
2013-11-27 10:39:00,58.4,32.2,29.99,NE,40,1.0,-999.0,37,0.00,,,0.00,652.0,WeatherSnoop3.0,2013-11-27 18:39:00,
2013-11-27 10:44:00,60.0,33.0,29.99,North,11,0.0,-999.0,36,0.00,,,0.00,654.0,WeatherSnoop3.0,2013-11-27 18:44:00,
2013-11-27 10:49:00,61.3,32.7,29.99,SSW,211,0.0,-999.0,34,0.00,,,0.00,624.0,WeatherSnoop3.0,2013-11-27 18:49:00,
2013-11-27 10:55:00,62.6,33.8,29.98,SSW,211,3.0,-999.0,34,0.00,,,0.00,606.0,WeatherSnoop3.0,2013-11-27 18:55:00,
2013-11-27 11:00:00,63.7,34.1,29.97,South,182,1.0,-999.0,33,0.00,,,0.00,515.0,WeatherSnoop3.0,2013-11-27 19:00:00,
2013-11-27 11:01:00,63.7,34.1,29.97,South,182,1.0,-999.0,33,0.00,,,0.00,515.0,WeatherSnoop3.0,2013-11-27 19:01:00,
2013-11-27 11:06:00,63.8,34.1,29.97,SSW,209,0.0,-999.0,33,0.00,,,0.00,265.0,WeatherSnoop3.0,2013-11-27 19:06:00,
2013-11-27 11:11:00,63.0,33.4,29.97,South,178,0.0,-999.0,33,0.00,,,0.00,181.0,WeatherSnoop3.0,2013-11-27 19:11:00,
2013-11-27 11:16:00,62.7,33.2,29.96,SW,225,0.0,-999.0,33,0.00,,,0.00,666.0,WeatherSnoop3.0,2013-11-27 19:16:00,
2013-11-27 11:21:00,63.4,33.8,29.96,SSW,199,1.0,-999.0,33,0.00,,,0.00,640.0,WeatherSnoop3.0,2013-11-27 19:21:00,
2013-11-27 11:26:00,63.7,34.1,29.95,SE,126,0.0,-999.0,33,0.00,,,0.00,596.0,WeatherSnoop3.0,2013-11-27 19:26:00,
2013-11-27 11:32:00,64.0,34.3,29.95,South,181,0.0,-999.0,33,0.00,,,0.00,564.0,WeatherSnoop3.0,2013-11-27 19:32:00,
2013-11-27 11:37:00,64.0,34.3,29.94,SSE,153,6.0,-999.0,33,0.00,,,0.00,241.0,WeatherSnoop3.0,2013-11-27 19:37:00,
2013-11-27 11:42:00,63.8,34.1,29.94,SSW,193,0.0,-999.0,33,0.00,,,0.00,642.0,WeatherSnoop3.0,2013-11-27 19:42:00,
2013-11-27 11:47:00,64.3,33.8,29.93,SSW,205,4.0,-999.0,32,0.00,,,0.00,640.0,WeatherSnoop3.0,2013-11-27 19:47:00,
2013-11-27 11:53:00,64.7,34.2,29.93,SSW,202,0.0,-999.0,32,0.00,,,0.00,659.0,WeatherSnoop3.0,2013-11-27 19:53:00,
2013-11-27 11:58:00,64.6,34.8,29.92,SSW,205,0.0,-999.0,33,0.00,,,0.00,680.0,WeatherSnoop3.0,2013-11-27 19:58:00,
2013-11-27 12:04:00,64.8,34.2,29.92,SW,215,0.0,-999.0,32,0.00,,,0.00,659.0,WeatherSnoop3.0,2013-11-27 20:04:00,
2013-11-27 12:09:00,65.1,34.5,29.92,SW,226,0.0,-999.0,32,0.00,,,0.00,568.0,WeatherSnoop3.0,2013-11-27 20:09:00,
2013-11-27 12:14:00,65.8,34.3,29.92,SSW,202,1.0,-999.0,31,0.00,,,0.00,638.0,WeatherSnoop3.0,2013-11-27 20:14:00,
2013-11-27 12:19:00,65.8,34.3,29.92,SE,134,1.0,-999.0,31,0.00,,,0.00,636.0,WeatherSnoop3.0,2013-11-27 20:19:00,
2013-11-27 12:24:00,65.9,34.4,29.91,SSW,194,2.0,-999.0,31,0.00,,,0.00,462.0,WeatherSnoop3.0,2013-11-27 20:24:00,
2013-11-27 12:30:00,65.5,34.1,29.91,SSW,209,0.0,-999.0,31,0.00,,,0.00,675.0,WeatherSnoop3.0,2013-11-27 20:30:00,
2013-11-27 12:35:00,65.6,33.3,29.90,SSW,201,3.0,-999.0,30,0.00,,,0.00,643.0,WeatherSnoop3.0,2013-11-27 20:35:00,
2013-11-27 12:40:00,65.8,33.5,29.91,WNW,301,0.0,-999.0,30,0.00,,,0.00,608.0,WeatherSnoop3.0,2013-11-27 20:40:00,
2013-11-27 12:45:00,65.8,32.7,29.91,SSW,202,1.0,-999.0,29,0.00,,,0.00,552.0,WeatherSnoop3.0,2013-11-27 20:45:00,
2013-11-27 12:51:00,65.7,33.4,29.90,South,190,3.0,-999.0,30,0.00,,,0.00,550.0,WeatherSnoop3.0,2013-11-27 20:51:00,
2013-11-27 12:56:00,65.5,33.2,29.89,South,188,0.0,-999.0,30,0.00,,,0.00,464.0,WeatherSnoop3.0,2013-11-27 20:56:00,
2013-11-27 13:01:00,65.6,32.5,29.89,SSW,204,1.0,-999.0,29,0.00,,,0.00,487.0,WeatherSnoop3.0,2013-11-27 21:01:00,
2013-11-27 13:06:00,65.4,32.3,29.89,SSE,161,0.0,-999.0,29,0.00,,,0.00,438.0,WeatherSnoop3.0,2013-11-27 21:06:00,
2013-11-27 13:11:00,65.4,33.2,29.89,SSW,199,0.0,-999.0,30,0.00,,,0.00,308.0,WeatherSnoop3.0,2013-11-27 21:11:00,
2013-11-27 13:17:00,65.4,33.2,29.89,SSW,205,2.0,-999.0,30,0.00,,,0.00,301.0,WeatherSnoop3.0,2013-11-27 21:17:00,
2013-11-27 13:22:00,65.5,33.2,29.89,NE,45,1.0,-999.0,30,0.00,,,0.00,223.0,WeatherSnoop3.0,2013-11-27 21:22:00,
2013-11-27 13:28:00,65.3,33.1,29.89,SSW,192,2.0,-999.0,30,0.00,,,0.00,93.0,WeatherSnoop3.0,2013-11-27 21:28:00,
2013-11-27 13:33:00,65.3,32.2,29.88,SSW,199,0.0,-999.0,29,0.00,,,0.00,79.0,WeatherSnoop3.0,2013-11-27 21:33:00,
2013-11-27 13:38:00,65.2,33.0,29.88,SSW,194,2.0,-999.0,30,0.00,,,0.00,76.0,WeatherSnoop3.0,2013-11-27 21:38:00,
2013-11-27 13:43:00,65.2,33.0,29.88,SW,220,1.0,-999.0,30,0.00,,,0.00,65.0,WeatherSnoop3.0,2013-11-27 21:43:00,
2013-11-27 13:48:00,65.1,32.9,29.88,SSW,200,1.0,-999.0,30,0.00,,,0.00,183.0,WeatherSnoop3.0,2013-11-27 21:48:00,
2013-11-27 13:54:00,64.9,33.5,29.88,South,183,1.0,-999.0,31,0.00,,,0.00,204.0,WeatherSnoop3.0,2013-11-27 21:54:00,
2013-11-27 14:00:00,64.7,33.4,29.88,SSW,202,4.0,-999.0,31,0.00,,,0.00,156.0,WeatherSnoop3.0,2013-11-27 22:00:00,
2013-11-27 14:05:00,64.5,34.0,29.88,SSW,209,2.0,-999.0,32,0.00,,,0.00,98.0,WeatherSnoop3.0,2013-11-27 22:05:00,
2013-11-27 14:10:00,64.3,33.8,29.88,SSW,202,1.0,-999.0,32,0.00,,,0.00,67.0,WeatherSnoop3.0,2013-11-27 22:10:00,
2013-11-27 14:16:00,64.2,33.7,29.88,SSW,206,2.0,-999.0,32,0.00,,,0.00,128.0,WeatherSnoop3.0,2013-11-27 22:16:00,
2013-11-27 14:21:00,63.9,33.5,29.88,SSW,200,0.0,-999.0,32,0.00,,,0.00,195.0,WeatherSnoop3.0,2013-11-27 22:21:00,
2013-11-27 14:26:00,63.7,34.1,29.88,SW,219,2.0,-999.0,33,0.00,,,0.00,62.0,WeatherSnoop3.0,2013-11-27 22:26:00,
2013-11-27 14:31:00,63.5,33.9,29.88,SSW,193,1.0,-999.0,33,0.00,,,0.00,70.0,WeatherSnoop3.0,2013-11-27 22:31:00,
2013-11-27 14:36:00,63.3,33.7,29.88,SSW,200,1.0,-999.0,33,0.00,,,0.00,125.0,WeatherSnoop3.0,2013-11-27 22:36:00,
2013-11-27 14:42:00,63.0,33.4,29.88,SSW,192,1.0,-999.0,33,0.00,,,0.00,56.0,WeatherSnoop3.0,2013-11-27 22:42:00,
2013-11-27 14:47:00,62.9,34.1,29.88,SW,219,3.0,-999.0,34,0.00,,,0.00,153.0,WeatherSnoop3.0,2013-11-27 22:47:00,
2013-11-27 14:52:00,62.7,33.2,29.88,SSW,200,1.0,-999.0,33,0.00,,,0.00,186.0,WeatherSnoop3.0,2013-11-27 22:52:00,
2013-11-27 14:57:00,62.6,33.8,29.88,South,186,0.0,-999.0,34,0.00,,,0.00,116.0,WeatherSnoop3.0,2013-11-27 22:57:00,
2013-11-27 15:03:00,62.4,33.7,29.88,South,178,0.0,-999.0,34,0.00,,,0.00,53.0,WeatherSnoop3.0,2013-11-27 23:03:00,
2013-11-27 15:08:00,62.3,33.6,29.89,SW,221,3.0,-999.0,34,0.00,,,0.00,67.0,WeatherSnoop3.0,2013-11-27 23:08:00,
2013-11-27 15:13:00,62.1,33.4,29.88,SSW,202,0.0,-999.0,34,0.00,,,0.00,35.0,WeatherSnoop3.0,2013-11-27 23:13:00,
2013-11-27 15:19:00,61.9,33.2,29.88,SSW,210,0.0,-999.0,34,0.00,,,0.00,21.0,WeatherSnoop3.0,2013-11-27 23:19:00,
2013-11-27 15:24:00,61.5,33.6,29.88,SSW,195,1.0,-999.0,35,0.00,,,0.00,19.0,WeatherSnoop3.0,2013-11-27 23:24:00,
2013-11-27 15:29:00,61.1,33.2,29.88,WNW,300,0.0,-999.0,35,0.00,,,0.00,19.0,WeatherSnoop3.0,2013-11-27 23:29:00,
2013-11-27 15:34:00,60.9,33.1,29.88,SSW,210,0.0,-999.0,35,0.00,,,0.00,14.0,WeatherSnoop3.0,2013-11-27 23:34:00,
2013-11-27 15:39:00,60.6,33.5,29.88,WSW,249,0.0,-999.0,36,0.00,,,0.00,14.0,WeatherSnoop3.0,2013-11-27 23:39:00,
2013-11-27 15:45:00,60.2,33.1,29.88,SSW,198,0.0,-999.0,36,0.00,,,0.00,14.0,WeatherSnoop3.0,2013-11-27 23:45:00,
2013-11-27 15:50:00,60.0,33.0,29.88,SSW,209,0.0,-999.0,36,0.00,,,0.00,18.0,WeatherSnoop3.0,2013-11-27 23:50:00,
2013-11-27 15:55:00,59.8,32.8,29.88,SW,232,1.0,-999.0,36,0.00,,,0.00,19.0,WeatherSnoop3.0,2013-11-27 23:55:00,
2013-11-27 16:00:00,59.6,32.6,29.88,SSW,202,0.0,-999.0,36,0.00,,,0.00,16.0,WeatherSnoop3.0,2013-11-28 00:00:00,
2013-11-27 16:06:00,59.4,33.1,29.88,SE,132,0.0,-999.0,37,0.00,,,0.00,14.0,WeatherSnoop3.0,2013-11-28 00:06:00,
2013-11-27 16:12:00,59.2,32.9,29.88,SSW,198,0.0,-999.0,37,0.00,,,0.00,11.0,WeatherSnoop3.0,2013-11-28 00:12:00,
2013-11-27 16:17:00,59.0,32.8,29.88,NE,47,0.0,-999.0,37,0.00,,,0.00,11.0,WeatherSnoop3.0,2013-11-28 00:17:00,
2013-11-27 16:22:00,59.0,32.8,29.88,SSW,199,0.0,-999.0,37,0.00,,,0.00,9.0,WeatherSnoop3.0,2013-11-28 00:22:00,
2013-11-27 16:27:00,59.0,32.8,29.89,SSW,201,0.0,-999.0,37,0.00,,,0.00,9.0,WeatherSnoop3.0,2013-11-28 00:27:00,
2013-11-27 16:32:00,59.0,32.8,29.88,SSW,213,0.0,-999.0,37,0.00,,,0.00,9.0,WeatherSnoop3.0,2013-11-28 00:32:00,
2013-11-27 16:37:00,59.0,32.8,29.89,South,171,0.0,-999.0,37,0.00,,,0.00,7.0,WeatherSnoop3.0,2013-11-28 00:37:00,
2013-11-27 16:43:00,58.8,33.3,29.88,SSW,196,0.0,-999.0,38,0.00,,,0.00,5.0,WeatherSnoop3.0,2013-11-28 00:43:00,
2013-11-27 16:49:00,58.7,32.5,29.89,SSW,211,0.0,-999.0,37,0.00,,,0.00,0.0,WeatherSnoop3.0,2013-11-28 00:49:00,
2013-11-27 16:54:00,58.6,32.4,29.89,SSW,211,0.0,-999.0,37,0.00,,,0.00,0.0,WeatherSnoop3.0,2013-11-28 00:54:00,
2013-11-27 17:00:00,58.5,33.0,29.89,SSW,211,0.0,-999.0,38,0.00,,,0.00,0.0,WeatherSnoop3.0,2013-11-28 01:00:00,
2013-11-27 17:05:00,58.4,32.9,29.89,SSW,209,0.0,-999.0,38,0.00,,,0.00,0.0,WeatherSnoop3.0,2013-11-28 01:05:00,
2013-11-27 17:10:00,58.3,32.8,29.89,SW,224,0.0,-999.0,38,0.00,,,0.00,0.0,WeatherSnoop3.0,2013-11-28 01:10:00,
2013-11-27 17:15:00,58.2,32.7,29.89,WSW,252,0.0,-999.0,38,0.00,,,0.00,0.0,WeatherSnoop3.0,2013-11-28 01:15:00,
2013-11-27 17:20:00,58.1,32.6,29.90,SSW,210,1.0,-999.0,38,0.00,,,0.00,0.0,WeatherSnoop3.0,2013-11-28 01:20:00,
2013-11-27 17:26:00,58.0,33.2,29.89,SSW,200,0.0,-999.0,39,0.00,,,0.00,0.0,WeatherSnoop3.0,2013-11-28 01:26:00,
2013-11-27 17:32:00,57.8,33.0,29.90,SSW,195,0.0,-999.0,39,0.00,,,0.00,0.0,WeatherSnoop3.0,2013-11-28 01:32:00,
2013-11-27 17:37:00,57.6,32.8,29.90,SSW,196,0.0,-999.0,39,0.00,,,0.00,0.0,WeatherSnoop3.0,2013-11-28 01:37:00,
2013-11-27 17:42:00,57.5,32.7,29.90,SSW,196,0.0,-999.0,39,0.00,,,0.00,0.0,WeatherSnoop3.0,2013-11-28 01:42:00,
2013-11-27 17:48:00,57.3,33.2,29.90,ESE,120,0.0,-999.0,40,0.00,,,0.00,0.0,WeatherSnoop3.0,2013-11-28 01:48:00,
2013-11-27 17:54:00,57.2,33.1,29.90,ESE,120,0.0,-999.0,40,0.00,,,0.00,0.0,WeatherSnoop3.0,2013-11-28 01:54:00,
2013-11-27 17:59:00,56.9,32.8,29.91,SE,140,0.0,-999.0,40,0.00,,,0.00,0.0,WeatherSnoop3.0,2013-11-28 01:59:00,
2013-11-27 18:05:00,56.7,32.7,29.91,WSW,246,0.0,-999.0,40,0.00,,,0.00,0.0,WeatherSnoop3.0,2013-11-28 02:05:00,
2013-11-27 18:11:00,56.6,32.6,29.91,WSW,243,0.0,-999.0,40,0.00,,,0.00,0.0,WeatherSnoop3.0,2013-11-28 02:11:00,
2013-11-27 18:16:00,56.5,33.1,29.91,South,187,0.0,-999.0,41,0.00,,,0.00,0.0,WeatherSnoop3.0,2013-11-28 02:16:00,
2013-11-27 18:21:00,56.4,33.0,29.91,South,179,0.0,-999.0,41,0.00,,,0.00,0.0,WeatherSnoop3.0,2013-11-28 02:21:00,
2013-11-27 18:27:00,56.2,32.8,29.91,South,179,0.0,-999.0,41,0.00,,,0.00,0.0,WeatherSnoop3.0,2013-11-28 02:27:00,
2013-11-27 18:32:00,56.1,32.7,29.91,South,179,0.0,-999.0,41,0.00,,,0.00,0.0,WeatherSnoop3.0,2013-11-28 02:32:00,
2013-11-27 18:37:00,56.0,32.6,29.91,South,179,0.0,-999.0,41,0.00,,,0.00,0.0,WeatherSnoop3.0,2013-11-28 02:37:00,
2013-11-27 18:43:00,55.9,33.1,29.92,South,180,0.0,-999.0,42,0.00,,,0.00,0.0,WeatherSnoop3.0,2013-11-28 02:43:00,
2013-11-27 18:48:00,55.9,33.1,29.92,South,179,0.0,-999.0,42,0.00,,,0.00,0.0,WeatherSnoop3.0,2013-11-28 02:48:00,
2013-11-27 18:53:00,55.8,33.1,29.92,SSE,168,0.0,-999.0,42,0.00,,,0.00,0.0,WeatherSnoop3.0,2013-11-28 02:53:00,
2013-11-27 18:59:00,55.6,32.9,29.92,SSE,156,0.0,-999.0,42,0.00,,,0.00,0.0,WeatherSnoop3.0,2013-11-28 02:59:00,
2013-11-27 19:05:00,55.5,32.8,29.92,SSE,156,0.0,-999.0,42,0.00,,,0.00,0.0,WeatherSnoop3.0,2013-11-28 03:05:00,
2013-11-27 19:10:00,55.4,32.7,29.92,NNE,15,0.0,-999.0,42,0.00,,,0.00,0.0,WeatherSnoop3.0,2013-11-28 03:10:00,
2013-11-27 19:15:00,55.4,33.3,29.92,NNE,15,0.0,-999.0,43,0.00,,,0.00,0.0,WeatherSnoop3.0,2013-11-28 03:15:00,
2013-11-27 19:20:00,55.3,33.2,29.93,NNE,14,0.0,-999.0,43,0.00,,,0.00,0.0,WeatherSnoop3.0,2013-11-28 03:20:00,
2013-11-27 19:25:00,55.1,33.0,29.93,NNE,14,0.0,-999.0,43,0.00,,,0.00,0.0,WeatherSnoop3.0,2013-11-28 03:25:00,
2013-11-27 19:31:00,55.0,32.9,29.93,NNE,15,0.0,-999.0,43,0.00,,,0.00,0.0,WeatherSnoop3.0,2013-11-28 03:31:00,
2013-11-27 19:36:00,54.8,32.7,29.93,NNE,14,0.0,-999.0,43,0.00,,,0.00,0.0,WeatherSnoop3.0,2013-11-28 03:36:00,
2013-11-27 19:41:00,54.6,32.6,29.93,NNE,15,0.0,-999.0,43,0.00,,,0.00,0.0,WeatherSnoop3.0,2013-11-28 03:41:00,
2013-11-27 19:47:00,54.2,32.2,29.93,NNE,15,0.0,-999.0,43,0.00,,,0.00,0.0,WeatherSnoop3.0,2013-11-28 03:47:00,
2013-11-27 19:53:00,54.0,32.0,29.93,NNE,15,0.0,-999.0,43,0.00,,,0.00,0.0,WeatherSnoop3.0,2013-11-28 03:53:00,
2013-11-27 19:58:00,53.6,31.7,29.93,NNE,14,0.0,-999.0,43,0.00,,,0.00,0.0,WeatherSnoop3.0,2013-11-28 03:58:00,
2013-11-27 20:03:00,53.3,32.0,29.93,NNE,15,0.0,-999.0,44,0.00,,,0.00,0.0,WeatherSnoop3.0,2013-11-28 04:03:00,
2013-11-27 20:09:00,52.9,32.1,29.94,NNE,15,0.0,-999.0,45,0.00,,,0.00,0.0,WeatherSnoop3.0,2013-11-28 04:09:00,
2013-11-27 20:14:00,52.6,31.9,29.94,NNE,15,0.0,-999.0,45,0.00,,,0.00,0.0,WeatherSnoop3.0,2013-11-28 04:14:00,
2013-11-27 20:19:00,52.3,32.1,29.94,NNE,15,0.0,-999.0,46,0.00,,,0.00,0.0,WeatherSnoop3.0,2013-11-28 04:19:00,
2013-11-27 20:25:00,51.9,31.8,29.94,NNE,15,0.0,-999.0,46,0.00,,,0.00,0.0,WeatherSnoop3.0,2013-11-28 04:25:00,
2013-11-27 20:30:00,51.7,32.1,29.94,NNE,15,0.0,-999.0,47,0.00,,,0.00,0.0,WeatherSnoop3.0,2013-11-28 04:30:00,
2013-11-27 20:35:00,51.3,31.8,29.94,NNE,15,0.0,-999.0,47,0.00,,,0.00,0.0,WeatherSnoop3.0,2013-11-28 04:35:00,
2013-11-27 20:41:00,51.0,32.0,29.94,NNE,15,0.0,-999.0,48,0.00,,,0.00,0.0,WeatherSnoop3.0,2013-11-28 04:41:00,
2013-11-27 20:46:00,50.6,32.2,29.94,NNE,14,0.0,-999.0,49,0.00,,,0.00,0.0,WeatherSnoop3.0,2013-11-28 04:46:00,
2013-11-27 20:51:00,50.3,31.9,29.94,NNE,15,0.0,-999.0,49,0.00,,,0.00,0.0,WeatherSnoop3.0,2013-11-28 04:51:00,
2013-11-27 20:56:00,50.0,32.1,29.94,NNE,15,0.0,-999.0,50,0.00,,,0.00,0.0,WeatherSnoop3.0,2013-11-28 04:56:00,
2013-11-27 21:01:00,49.8,31.9,29.94,NNE,15,0.0,-999.0,50,0.00,,,0.00,0.0,WeatherSnoop3.0,2013-11-28 05:01:00,
2013-11-27 21:02:00,49.7,31.8,29.94,NNE,15,0.0,-999.0,50,0.00,,,0.00,0.0,WeatherSnoop3.0,2013-11-28 05:02:00,
2013-11-27 21:08:00,49.4,32.0,29.94,North,349,0.0,-999.0,51,0.00,,,0.00,0.0,WeatherSnoop3.0,2013-11-28 05:08:00,
2013-11-27 21:12:00,49.3,31.9,29.94,North,349,0.0,-999.0,51,0.00,,,0.00,0.0,WeatherSnoop3.0,2013-11-28 05:12:00,
2013-11-27 21:13:00,49.3,31.9,29.94,North,349,0.0,-999.0,51,0.00,,,0.00,0.0,WeatherSnoop3.0,2013-11-28 05:13:00,
2013-11-27 21:18:00,49.2,31.9,29.94,North,349,0.0,-999.0,51,0.00,,,0.00,0.0,WeatherSnoop3.0,2013-11-28 05:18:00,
2013-11-27 21:23:00,49.1,31.8,29.94,North,349,0.0,-999.0,51,0.00,,,0.00,0.0,WeatherSnoop3.0,2013-11-28 05:23:00,
2013-11-27 21:29:00,48.9,31.6,29.94,NNW,347,0.0,-999.0,51,0.00,,,0.00,0.0,WeatherSnoop3.0,2013-11-28 05:29:00,
2013-11-27 21:34:00,48.8,32.0,29.95,NNW,346,2.0,-999.0,52,0.00,,,0.00,0.0,WeatherSnoop3.0,2013-11-28 05:34:00,
2013-11-27 21:41:00,48.9,31.6,29.95,North,10,1.0,-999.0,51,0.00,,,0.00,0.0,WeatherSnoop3.0,2013-11-28 05:41:00,
2013-11-27 21:46:00,49.0,31.7,29.95,North,360,0.0,-999.0,51,0.00,,,0.00,0.0,WeatherSnoop3.0,2013-11-28 05:46:00,
2013-11-27 21:52:00,49.0,31.7,29.95,North,360,0.0,-999.0,51,0.00,,,0.00,0.0,WeatherSnoop3.0,2013-11-28 05:52:00,
2013-11-27 21:57:00,49.0,31.7,29.95,North,360,0.0,-999.0,51,0.00,,,0.00,0.0,WeatherSnoop3.0,2013-11-28 05:57:00,
2013-11-27 22:02:00,48.9,31.6,29.95,North,360,0.0,-999.0,51,0.00,,,0.00,0.0,WeatherSnoop3.0,2013-11-28 06:02:00,
2013-11-27 22:08:00,48.8,31.5,29.95,North,360,0.0,-999.0,51,0.00,,,0.00,0.0,WeatherSnoop3.0,2013-11-28 06:08:00,
2013-11-27 22:13:00,48.6,31.8,29.95,NNW,335,0.0,-999.0,52,0.00,,,0.00,0.0,WeatherSnoop3.0,2013-11-28 06:13:00,
2013-11-27 22:19:00,48.5,31.7,29.95,NNW,333,0.0,-999.0,52,0.00,,,0.00,0.0,WeatherSnoop3.0,2013-11-28 06:19:00,
2013-11-27 22:24:00,48.4,31.6,29.95,NNE,19,0.0,-999.0,52,0.00,,,0.00,0.0,WeatherSnoop3.0,2013-11-28 06:24:00,
2013-11-27 22:30:00,48.3,31.5,29.95,NNE,19,0.0,-999.0,52,0.00,,,0.00,0.0,WeatherSnoop3.0,2013-11-28 06:30:00,
2013-11-27 22:35:00,48.1,31.3,29.95,NNE,18,0.0,-999.0,52,0.00,,,0.00,0.0,WeatherSnoop3.0,2013-11-28 06:35:00,
2013-11-27 22:40:00,47.9,31.6,29.95,North,360,0.0,-999.0,53,0.00,,,0.00,0.0,WeatherSnoop3.0,2013-11-28 06:40:00,
2013-11-27 22:46:00,47.8,31.5,29.95,North,5,0.0,-999.0,53,0.00,,,0.00,0.0,WeatherSnoop3.0,2013-11-28 06:46:00,
2013-11-27 22:52:00,47.7,31.4,29.95,North,355,0.0,-999.0,53,0.00,,,0.00,0.0,WeatherSnoop3.0,2013-11-28 06:52:00,
2013-11-27 22:57:00,47.7,31.4,29.95,NNW,344,4.0,-999.0,53,0.00,,,0.00,0.0,WeatherSnoop3.0,2013-11-28 06:57:00,
2013-11-27 23:03:00,47.6,31.3,29.95,North,355,4.0,-999.0,53,0.00,,,0.00,0.0,WeatherSnoop3.0,2013-11-28 07:03:00,
2013-11-27 23:08:00,47.5,31.2,29.96,North,351,0.0,-999.0,53,0.00,,,0.00,0.0,WeatherSnoop3.0,2013-11-28 07:08:00,
2013-11-27 23:13:00,47.5,31.2,29.95,NNW,344,0.0,-999.0,53,0.00,,,0.00,0.0,WeatherSnoop3.0,2013-11-28 07:13:00,
2013-11-27 23:18:00,47.4,31.1,29.95,NNW,344,0.0,-999.0,53,0.00,,,0.00,0.0,WeatherSnoop3.0,2013-11-28 07:18:00,
2013-11-27 23:24:00,47.2,31.4,29.95,NNW,344,0.0,-999.0,54,0.00,,,0.00,0.0,WeatherSnoop3.0,2013-11-28 07:24:00,
2013-11-27 23:30:00,47.0,31.2,29.95,NNW,344,0.0,-999.0,54,0.00,,,0.00,0.0,WeatherSnoop3.0,2013-11-28 07:30:00,
2013-11-27 23:35:00,46.8,31.0,29.96,NNE,24,1.0,-999.0,54,0.00,,,0.00,0.0,WeatherSnoop3.0,2013-11-28 07:35:00,
2013-11-27 23:40:00,46.7,30.9,29.95,NNE,27,0.0,-999.0,54,0.00,,,0.00,0.0,WeatherSnoop3.0,2013-11-28 07:40:00,
2013-11-27 23:45:00,46.7,30.9,29.95,NNW,348,2.0,-999.0,54,0.00,,,0.00,0.0,WeatherSnoop3.0,2013-11-28 07:45:00,
2013-11-27 23:50:00,46.8,31.0,29.95,NE,38,6.0,-999.0,54,0.00,,,0.00,0.0,WeatherSnoop3.0,2013-11-28 07:50:00,
2013-11-27 23:56:00,46.9,31.1,29.95,NNW,346,4.0,-999.0,54,0.00,,,0.00,0.0,WeatherSnoop3.0,2013-11-28 07:56:00,